Location: Chenango Forks
(42.2242°N, 75.8278°W)
Time: 10:17:43
(UTC-05:00)

Daily predictions for brighter satellites

Satellite Brightness Start Highest point End
(mag) Time Altitude Azimuth Time Altitude Azimuth Time Altitude Azimuth
YAOGAN 1 2.5 17:31:12 10° SSE 17:35:31 79° ENE 17:39:52 10° N
COSMO-SKYMED 1 3.3 17:33:14 10° NNE 17:37:09 32° E 17:41:02 10° SSE
COSMOS 2441 4.4 17:34:40 10° SSE 17:39:27 64° ENE 17:44:15 10° N
CORIOLIS 4.2 17:34:17 10° SSE 17:39:37 86° ENE 17:45:02 10° NNW
SMAP 3.2 17:35:07 10° S 17:39:46 81° WSW 17:44:28 10° NNW
ATLAS 5 CENTAUR R/B 4.2 17:42:35 10° N 17:44:33 12° NNE 17:46:34 10° NE
Cosmos 1666 Rocket 4.5 17:40:54 10° SSE 17:44:33 27° E 17:48:16 10° NNE
CENTAUR R/B 4.1 17:39:12 10° W 17:44:43 30° NW 17:50:52 10° NNE
Cosmos 1980 4.3 17:42:38 10° SW 17:48:14 59° WNW 17:53:51 10° NNE
Lacrosse 4 Rocket 2.3 17:47:13 10° N 17:50:39 26° NE 17:54:06 10° ESE
Cosmos 1626 2.7 17:51:04 10° SSE 17:54:30 36° E 17:57:58 10° NNE
USA 229 DEB 4.2 17:51:39 10° S 17:57:56 40° ESE 18:04:19 10° NE
USA 229 4.2 17:51:46 10° S 17:58:01 40° ESE 18:04:24 10° NE
Cosmos 1151 Rocket 4.1 17:55:02 10° NNW 17:59:11 49° W 18:03:19 10° SSW
Resurs 01 Rocket 3.2 17:58:52 10° E 18:01:31 16° ENE 18:04:08 10° NNE
Cosmos 2219 Rocket 3.9 17:58:38 10° WSW 18:03:35 31° NW 18:08:32 10° N
Cosmos 2058 3.2 18:01:06 10° SSW 18:05:11 68° W 18:09:18 10° N
Meteor 1-11 4.5 18:00:32 10° SSW 18:06:14 78° W 18:12:03 10° N
Cosmos 1184 Rocket 3.4 18:03:19 10° SSE 18:06:22 34° E 18:09:26 10° NNE
Cosmos 1726 4.0 18:04:07 10° NNW 18:07:34 34° W 18:11:01 10° SSW
Cosmos 2279 Rocket 4.1 18:01:38 10° N 18:07:52 84° W 18:14:07 10° S
CZ-4C R/B 4.4 18:04:17 10° NNW 18:07:55 15° NNE 18:11:11 11° NE
Iridium 4 Rocket 4.0 18:07:05 10° SE 18:10:41 25° E 18:14:09 10° NNE
Cosmos 1603 4.4 18:08:26 10° SSE 18:13:22 33° ESE 18:17:32 14° NE
Cosmos 2333 Rocket 3.8 18:09:25 10° WSW 18:14:26 32° NW 18:19:30 10° N
Cosmos 1461 3.4 18:11:12 10° SW 18:15:19 58° NW 18:19:20 10° NNE
Cosmos 304 Rocket 4.1 18:10:54 10° SSW 18:15:41 68° WNW 18:20:30 10° NNE
Lacrosse 5 rocket 3.9 18:13:14 10° WNW 18:16:11 21° SW 18:19:14 10° S
Aureole 1 Rocket 4.1 18:10:54 10° S 18:16:15 52° E 18:23:15 10° NNE
FREGAT/IRIS 3.5 18:13:39 10° SE 18:16:18 27° ENE 18:18:58 10° NNE
DMSP B5D1-3 4.5 18:12:55 10° NNE 18:18:00 64° ESE 18:23:02 10° S
Cosmos 2278 Rocket 4.2 18:14:05 10° NW 18:19:03 32° WSW 18:24:01 10° SSW
Cosmos 1242 Rocket 3.4 18:16:22 10° NNE 18:19:21 26° ENE 18:22:21 10° SE
Cosmos 1455 2.1 18:17:09 10° N 18:20:56 63° E 18:24:44 10° SSE
Tiangong 1 2.7 18:19:40 10° SSW 18:21:56 20° SSE 18:22:42 18° SE
Cosmos 1805 Rocket 3.7 18:17:59 10° SSW 18:22:26 78° W 18:26:55 10° N
Cosmos 1356 Rocket 3.2 18:20:25 10° S 18:24:24 86° ESE 18:28:25 10° N
SKYMED 2 3.8 18:20:58 10° N 18:25:20 75° WNW 18:29:39 10° SSW
Nadezhda 4 Rocket 3.9 18:21:17 10° S 18:27:30 71° E 18:33:49 10° NNE
Cosmos 2242 Rocket 3.6 18:25:25 10° N 18:29:46 53° E 18:34:07 10° SSE
Cosmos 1538 Rocket 4.2 18:26:05 10° SSW 18:31:23 78° WNW 18:36:46 10° NNE
Sich 1 3.0 18:28:47 10° S 18:33:14 89° E 18:37:41 10° N
Cosmos 1703 4.2 18:32:51 10° SSW 18:36:37 48° W 18:40:25 10° N
Coronas F rocket 0.8 18:35:39 10° S 18:37:55 81° S 18:37:55 81° S
Cosmos 923 Rocket 4.0 18:34:07 10° S 18:39:11 56° ESE 18:42:58 18° NNE
Cosmos 2237 Rocket 4.2 18:38:53 10° WSW 18:43:29 25° NW 18:48:08 10° N
SJ-6B 2.8 18:40:06 10° SSE 18:44:11 77° ENE 18:48:21 10° N
SOZ 4.4 18:42:31 10° WSW 18:44:39 76° NW 18:44:55 65° NNE
Cosmos 1633 Rocket 3.1 18:40:40 10° SSW 18:45:03 78° W 18:49:28 10° N
Cosmos 1680 Rocket 3.7 18:40:13 10° S 18:45:13 49° ESE 18:47:47 27° NE
Cosmos 2369 Rocket 2.8 18:41:08 10° N 18:46:14 33° NE 18:47:04 32° ENE
NOSS 3-1 (C) 4.0 18:43:59 10° S 18:49:03 33° ESE 18:50:00 31° E
Cosmos 1092 Rocket 3.9 18:44:34 10° S 18:50:54 78° E 18:57:15 10° N
SL-16 R/B 3.2 18:46:57 10° SW 18:52:21 45° WNW 18:57:47 10° NNE
Orbus 7S? 4.4 18:50:25 10° NW 18:54:44 76° NE 19:05:22 10° SE
Lacrosse 5 3.6 18:52:31 10° NNW 18:56:00 18° NNE 18:56:21 18° NNE
Cosmos 1867 4.4 18:51:43 10° NNW 18:56:25 31° NE 18:56:25 31° NE
ATLAS 3B R/B 4.3 18:55:22 10° NNW 18:59:23 16° NNE 19:00:18 15° NNE
USA 215 3.2 18:56:43 27° ESE 19:00:28 70° NE 19:07:00 10° NW
ALOS 2.1 18:57:20 10° SSE 19:01:58 68° ENE 19:06:37 10° N
Cosmos 773 Rocket 4.4 18:57:39 10° SSW 19:02:45 61° WNW 19:07:41 11° NNE
Cosmos 1862 Rocket 3.3 19:04:20 10° N 19:08:44 80° E 19:13:05 10° S
Cosmos 2084 Rocket 4.4 19:07:04 10° NNW 19:09:20 31° N 19:09:20 31° N
FENGYUN 3A 3.5 19:06:20 10° SSE 19:11:42 81° ENE 19:17:06 10° NNW
Cosmos 292 Rocket 3.8 19:07:41 10° SSW 19:12:25 79° WNW 19:14:24 35° NNE
Cosmos 2195 Rocket 4.3 19:07:01 10° S 19:13:05 76° E 19:19:16 10° N
Cosmos 2112 Rocket 3.9 19:16:48 10° SSW 19:22:01 89° ESE 19:23:17 53° NNE
Meteor 2-20 Rocket 4.4 19:16:22 10° S 19:22:00 55° ESE 19:22:00 55° ESE
Cosmos 1943 3.2 19:23:34 10° S 19:28:35 61° SE 19:28:35 61° SE
Lacrosse 4 Rocket 3.3 19:25:50 10° NW 19:29:19 28° WSW 19:32:49 10° S
ATLAS 5 CENTAUR R/B 3.3 19:25:32 10° NNW 19:29:30 32° NNE 19:29:30 32° NNE
Cosmos 1933 Rocket 4.4 19:29:22 10° SSW 19:33:41 50° W 19:35:24 32° NNW
Resurs 01 Rocket 2.2 19:34:52 22° S 19:37:32 55° W 19:41:55 10° NNW
Cosmos 1417 Rocket 4.3 19:32:49 10° N 19:39:02 86° E 19:41:58 33° S
H-2A ROCKET BODY 3.9 19:28:42 10° WSW 19:43:06 30° SSW 19:45:25 24° S
Cosmos 1943 Rocket 3.7 19:42:19 10° NNW 19:44:33 24° N 19:44:33 24° N
USA 229 4.5 19:42:19 10° WSW 19:48:53 47° NW 19:52:02 29° N
Spot 2 Rocket 4.4 19:47:01 10° S 19:51:50 45° W 19:56:41 10° NNW
Cosmos 1655 Rocket 4.1 19:45:40 10° SSW 19:52:01 74° W 19:58:23 10° N
CZ-4C R/B 3.7 19:51:56 10° NNW 19:56:23 34° N 19:56:23 34° N
NOSS 3-1 (A) 4.1 19:56:22 10° SSW 20:00:05 43° SSW 20:00:05 43° SSW
Cosmos 2369 Rocket 3.7 20:25:07 10° NW 20:28:57 33° WNW 20:28:57 33° WNW
USA 215 4.4 20:44:05 35° WSW 20:44:05 35° WSW 20:49:39 10° WNW
